Regional Weather Roundup
Issued by NWS

Home | Current Version | Previous Version | Text Only | Print | Product List | Glossary Off
Versions: 1 2 3 4 5 6 7 8 9 10 11 12 13 14 15 16 17 18 19 20 21 22 23 24 25 26 27 28 29 30 31 32 33 34 35 36 37 38 39 40 41 42 43 44 45 46 47 48 49 50

000
ASUS43 KTOP 300759
RWRKS

WEATHER ROUNDUP FOR KANSAS
NATIONAL WEATHER SERVICE GOODLAND KS
300 AM CDT MON MAY 30 2016

NOTE:  "FAIR" INDICATES FEW OR NO CLOUDS BELOW 12,000 FEET WITH NO
SIGNIFICANT WEATHER AND/OR OBSTRUCTIONS TO VISIBILITY.

KSZ001>006-013>018-027>032-041>047-300900-
NORTHWEST KANSAS

CITY           SKY/WX    TMP DP  RH WIND       PRES   REMARKS
GOODLAND       PTCLDY    55  51  86 SW7       30.09F
HAYS           PTCLDY    61  50  67 SW7       30.03F
HILL CITY      MOCLDY    58  53  84 W7        30.04S
$$

KSZ061>065-074>080-084>089-300900-
SOUTHWEST KANSAS

CITY           SKY/WX    TMP DP  RH WIND       PRES   REMARKS
DODGE CITY     PTCLDY    58  51  78 S10       30.07F
ELKHART          N/A     51  46  83 W1          N/A
GARDEN CITY    CLOUDY    55  50  83 W10       30.05F
GREAT BEND     PTCLDY    59  52  77 SW8       30.03S
LIBERAL        PTCLDY    52  43  71 CALM      30.08S
$$

KSZ066>073-081>083-090>101-300900-
SOUTHEAST KANSAS

CITY           SKY/WX    TMP DP  RH WIND       PRES   REMARKS
CHANUTE        CLEAR     65  63  93 SE6       30.03F
COFFEYVILLE    PTCLDY    65  63  93 E3        30.03F
HUTCHINSON     PTCLDY    64  57  78 SE7       30.03S
MEDICINE LODGE   N/A     62  59  90 N3        30.02S
NEWTON         CLEAR     63  55  77 SE6       30.05F
PARSONS        CLEAR     61  61 100 CALM      30.04F
WICHITA INTL   MOCLDY    68  61  78 CALM      30.01F
WICHITA JABRA  PTCLDY    62  60  93 E3        30.01F
WINFIELD       CLOUDY    67  62  84 SE3       30.03F
$$

KSZ007>012-019>026-033>040-048>060-102>105-300900-
NORTHEAST KANSAS

CITY           SKY/WX    TMP DP  RH WIND       PRES   REMARKS
CONCORDIA      CLEAR     64  59  83 S7        30.01S
EMPORIA        CLEAR     63  62  97 CALM      30.03F
LAWRENCE       CLEAR     61  60  97 N3        30.02F
MANHATTAN      CLEAR     61  59  93 N5        30.02S
OLATHE IND     CLEAR     63  61  93 S3        30.03F
OLATHE EXE     CLEAR     65  60  84 CALM      30.03F
SALINA         CLOUDY    63  60  90 S3        30.01F
TOPEKA BILLARD CLEAR     64  62  93 CALM      30.02F
TOPEKA FORBES  CLEAR     64  62  93 S3        30.02F
$$




USA.gov is the U.S. government's official web portal to all federal, state and local government web resources and services.